GW6381 Weather Reports


time (UTC)temp
C
wind
direction
speed
KPH
gust
KPH
rain 1hr
cm
rain 24hr
cm
rain mn
cm
humidity
%
barometer
mb
20260506222009 7 92 0.0 4.8 0.00 1.22 1.19 91 1008.6
20260506221524 7 73 0.0 3.2 0.00 1.22 1.19 91 1008.6
20260506221008 7 72 0.0 3.2 0.00 1.22 1.19 91 1008.5
20260506220507 7 108 0.0 1.6 0.00 1.22 1.19 91 1008.6
20260506220010 7 117 0.0 1.6 0.00 1.22 1.19 91 1008.6
20260506215505 7 116 0.0 1.6 0.00 1.22 1.19 91 1008.6
20260506215008 7 117 0.0 1.6 0.00 1.22 1.19 91 1008.6
20260506214518 7 72 0.0 3.2 0.00 1.22 1.19 91 1008.5
20260506214006 7 77 0.0 3.2 0.00 1.22 1.19 91 1008.4
20260506213510 7 76 0.0 3.2 0.00 1.22 1.19 91 1008.5
20260506213020 7 102 0.0 6.4 0.00 1.22 1.19 91 1008.2
20260506212508 7 84 1.6 6.4 0.00 1.22 1.19 90 1008.3
20260506212010 7 350 0.0 6.4 0.03 1.22 1.19 91 1008.3
20260506211538 7 30 3.2 6.4 0.03 1.22 1.19 90 1008.3
20260506211009 7 39 0.0 6.4 0.03 1.22 1.19 91 1008.3
20260506210508 7 129 0.0 4.8 0.03 1.22 1.19 91 1008.2
20260506210034 7 306 0.0 6.4 0.03 1.22 1.19 92 1008.1
20260506205510 7 74 1.6 6.4 0.03 1.22 1.19 92 1008.2
20260506205005 7 86 0.0 4.8 0.05 1.22 1.19 92 1008.3
20260506204516 7 271 0.0 4.8 0.05 1.22 1.19 92 1008.5
20260506204007 6 68 0.0 3.2 0.05 1.22 1.19 92 1008.6
20260506203508 6 107 0.0 3.2 0.05 1.22 1.19 92 1008.6
20260506203017 7 338 0.0 1.6 0.05 1.22 1.19 92 1008.5
20260506202507 7 75 0.0 3.2 0.05 1.22 1.19 92 1008.5
20260506202012 7 74 0.0 3.2 0.03 1.19 1.17 92 1008.4
20260506201527 7 88 0.0 4.8 0.03 1.19 1.17 92 1008.4
20260506201009 6 11 0.0 4.8 0.05 1.19 1.17 92 1008.4
20260506200508 6 1 0.0 4.8 0.05 1.19 1.17 91 1008.5
20260506200031 7 108 0.0 8.0 0.05 1.19 1.17 91 1008.4
20260506195511 7 100 0.0 8.0 0.05 1.19 1.17 91 1008.4
20260506195010 7 86 0.0 0.0 0.03 1.19 1.14 91 1008.4
20260506194526 7 49 0.0 1.6 0.03 1.19 1.14 91 1008.3
20260506194012 7 62 0.0 1.6 0.03 1.19 1.14 91 1008.5
20260506193504 7 354 0.0 1.6 0.03 1.19 1.14 91 1008.4
20260506193020 7 84 0.0 1.6 0.03 1.19 1.14 91 1008.2
20260506192510 7 60 0.0 3.2 0.03 1.19 1.14 91 1008.1
20260506192008 7 347 0.0 3.2 0.03 1.19 1.14 92 1008.1
20260506191519 7 293 0.0 1.6 0.05 1.19 1.14 92 1008.1
20260506191006 7 293 0.0 1.6 0.03 1.17 1.12 92 1008.0
20260506190508 7 212 0.0 1.6 0.03 1.17 1.12 92 1008.1
20260506190024 7 53 0.0 4.8 0.03 1.17 1.12 92 1008.1
20260506185511 6 55 0.0 4.8 0.03 1.17 1.12 92 1008.2
20260506185011 6 127 0.0 4.8 0.03 1.19 1.12 92 1008.2
20260506184531 6 281 0.0 3.2 0.03 1.19 1.12 92 1008.3
20260506184011 6 320 0.0 3.2 0.03 1.19 1.12 92 1008.3
20260506183509 6 323 0.0 3.2 0.03 1.19 1.12 92 1008.4
20260506183027 6 79 0.0 1.6 0.03 1.19 1.12 92 1008.5
20260506182507 6 84 0.0 1.6 0.05 1.22 1.12 92 1008.6
20260506182009 6 84 0.0 1.6 0.05 1.30 1.12 92 1008.8
20260506181534 6 84 0.0 4.8 0.03 1.32 1.09 92 1008.6
20260506181010 6 347 0.0 4.8 0.03 1.32 1.09 92 1008.8
20260506180506 6 107 0.0 3.2 0.03 1.32 1.09 92 1008.8
20260506180021 6 95 0.0 1.6 0.05 1.32 1.09 92 1008.8
20260506175514 6 330 0.0 1.6 0.05 1.32 1.09 92 1009.0
20260506175009 6 97 0.0 3.2 0.05 1.32 1.09 92 1008.9
20260506174523 6 255 0.0 3.2 0.08 1.32 1.09 92 1008.9
20260506174012 6 3 0.0 3.2 0.08 1.32 1.09 92 1009.2
20260506173514 6 106 0.0 3.2 0.10 1.32 1.09 92 1009.1
20260506173047 6 85 0.0 3.2 0.10 1.32 1.09 92 1009.4
20260506172509 6 95 0.0 4.8 0.08 1.30 1.07 92 1009.2
20260506172011 6 139 0.0 4.8 0.10 1.30 1.07 92 1009.3
20260506171537 6 95 0.0 4.8 0.10 1.30 1.07 92 1009.1
20260506171011 6 78 0.0 3.2 0.13 1.30 1.07 92 1009.3
20260506170508 6 58 0.0 3.2 0.15 1.30 1.07 92 1009.3
20260506170020 6 308 0.0 4.8 0.15 1.27 1.04 92 1009.2
20260506165512 6 343 1.6 4.8 0.15 1.27 1.04 92 1009.0
20260506165009 6 58 0.0 8.0 0.18 1.27 1.04 92 1009.0
20260506164522 6 58 1.6 8.0 0.18 1.24 1.02 92 1009.1
20260506164015 6 77 1.6 6.4 0.20 1.24 1.02 92 1009.4
20260506163509 6 69 0.0 6.4 0.20 1.22 0.99 92 1009.5
20260506163029 6 77 0.0 6.4 0.20 1.22 0.99 93 1009.5
20260506162509 6 355 0.0 3.2 0.23 1.22 0.99 92 1009.5
20260506162015 6 80 0.0 6.4 0.23 1.19 0.97 92 1009.6
20260506161528 6 193 0.0 6.4 0.25 1.19 0.97 92 1009.6
20260506161013 6 264 0.0 8.0 0.25 1.17 0.94 92 1009.6
20260506160511 6 82 0.0 8.0 0.25 1.14 0.91 92 1009.6
20260506160029 6 290 0.0 1.6 0.23 1.12 0.89 92 1009.7
20260506155512 6 51 0.0 4.8 0.25 1.12 0.89 92 1009.7
20260506155006 6 7 0.0 6.4 0.25 1.09 0.86 92 1009.7
20260506154522 6 60 0.0 6.4 0.23 1.07 0.84 92 1009.7
20260506154007 6 345 0.0 6.4 0.23 1.04 0.81 92 1009.8
20260506153508 6 89 0.0 6.4 0.20 1.02 0.79 92 1009.8
20260506153026 6 70 0.0 3.2 0.23 1.02 0.79 92 1009.9
20260506152510 6 297 0.0 4.8 0.20 0.99 0.76 92 1010.0
20260506152010 6 332 0.0 6.4 0.20 0.97 0.74 92 1010.0
20260506151524 6 84 0.0 6.4 0.18 0.94 0.71 92 1009.8
20260506151010 6 345 0.0 6.4 0.15 0.91 0.69 91 1009.9
20260506150510 6 39 1.6 6.4 0.15 0.89 0.66 91 1010.0
20260506150028 6 351 0.0 3.2 0.15 0.89 0.66 91 1009.6
20260506145508 6 301 0.0 6.4 0.13 0.86 0.64 91 1009.7
20260506145012 6 64 0.0 6.4 0.13 0.84 0.61 91 1009.6
20260506144532 6 97 1.6 4.8 0.13 0.84 0.61 91 1009.5
20260506144010 6 64 0.0 3.2 0.13 0.81 0.58 91 1009.4
20260506143509 6 84 0.0 6.4 0.13 0.81 0.58 91 1009.6
20260506143026 6 97 1.6 9.7 0.10 0.79 0.56 91 1009.6
20260506142511 6 354 1.6 9.7 0.10 0.79 0.56 91 1009.6
20260506142013 6 31 0.0 4.8 0.08 0.76 0.53 91 1009.5
20260506141524 6 11 0.0 6.4 0.10 0.76 0.53 91 1009.4
20260506141009 6 19 0.0 6.4 0.10 0.76 0.53 91 1009.7
20260506140509 6 33 0.0 4.8 0.08 0.74 0.51 91 1009.8
20260506140030 6 80 0.0 1.6 0.08 0.74 0.51 91 1009.6
20260506135507 6 13 0.0 3.2 0.08 0.74 0.51 90 1009.7
20260506135010 6 49 0.0 3.2 0.08 0.71 0.48 90 1009.6
20260506134528 6 18 0.0 4.8 0.08 0.71 0.48 90 1009.5
20260506134017 6 55 0.0 4.8 0.08 0.69 0.46 90 1009.6
20260506133515 6 51 0.0 3.2 0.08 0.69 0.46 90 1009.6
20260506133025 6 319 0.0 3.2 0.10 0.69 0.46 90 1009.6
20260506132510 6 342 0.0 3.2 0.10 0.69 0.46 90 1009.6
20260506132012 7 75 0.0 3.2 0.13 0.69 0.46 90 1009.5
20260506131524 7 70 0.0 4.8 0.10 0.66 0.43 91 1009.6
20260506131013 7 77 0.0 4.8 0.10 0.66 0.43 90 1009.7
20260506130503 7 93 0.0 3.2 0.13 0.66 0.43 90 1009.8
20260506130007 7 84 0.0 3.2 0.15 0.66 0.43 90 1009.8
20260506125504 7 48 0.0 3.2 0.15 0.66 0.43 90 1009.9
20260506125006 7 74 0.0 3.2 0.15 0.64 0.41 91 1009.9
20260506124514 7 12 0.0 0.0 0.15 0.64 0.41 90 1009.8
20260506124007 7 51 0.0 0.0 0.13 0.61 0.38 90 1009.9
20260506123509 7 313 0.0 0.0 0.15 0.61 0.38 90 1009.9
20260506123017 7 313 0.0 0.0 0.13 0.58 0.36 90 1009.9
20260506122509 7 313 0.0 0.0 0.13 0.58 0.36 89 1009.9
20260506122007 7 313 0.0 0.0 0.13 0.56 0.33 89 1009.9
20260506121520 7 79 0.0 0.0 0.13 0.56 0.33 89 1009.8
20260506121009 7 79 0.0 3.2 0.15 0.56 0.33 90 1009.9
20260506120511 7 79 0.0 3.2 0.13 0.53 0.30 89 1010.0
20260506120026 7 83 0.0 0.0 0.10 0.51 0.28 90 1010.2
20260506115508 7 83 0.0 1.6 0.10 0.51 0.28 90 1010.3
20260506115004 7 83 0.0 4.8 0.08 0.48 0.25 90 1010.3
20260506114508 7 108 0.0 4.8 0.08 0.48 0.25 90 1010.2
20260506114006 7 97 0.0 0.0 0.08 0.48 0.25 90 1010.3
20260506113508 7 97 0.0 1.6 0.05 0.46 0.23 90 1010.4
20260506113015 7 97 0.0 1.6 0.05 0.46 0.23 89 1010.3
20260506112509 7 97 0.0 0.0 0.08 0.46 0.23 89 1010.2
20260506112008 7 97 0.0 0.0 0.05 0.43 0.20 89 1010.2
20260506111519 7 97 0.0 0.0 0.05 0.43 0.20 89 1009.9
20260506111006 7 97 0.0 0.0 0.03 0.41 0.18 89 1009.6
20260506110506 7 97 0.0 0.0 0.03 0.41 0.18 90 1009.4
20260506110026 7 97 0.0 0.0 0.03 0.41 0.18 90 1009.3
20260506105508 7 97 0.0 0.0 0.03 0.41 0.18 90 1009.3
20260506105008 8 97 0.0 1.6 0.03 0.41 0.18 90 1009.3
20260506104550 8 97 0.0 1.6 0.03 0.41 0.18 90 1009.5
20260506104009 8 97 0.0 1.6 0.03 0.41 0.18 90 1009.4
20260506103507 8 97 0.0 1.6 0.03 0.41 0.18 90 1009.4
20260506103012 8 188 0.0 0.0 0.05 0.41 0.18 90 1009.6
20260506102508 8 188 0.0 0.0 0.03 0.38 0.15 90 1009.5
20260506102009 8 188 0.0 0.0 0.03 0.38 0.15 90 1009.5
20260506101516 8 188 0.0 0.0 0.05 0.38 0.15 90 1009.2
20260506101007 8 188 0.0 0.0 0.05 0.38 0.15 89 1009.4
20260506100508 8 188 0.0 0.0 0.08 0.38 0.15 89 1009.6
20260506100021 8 188 0.0 1.6 0.10 0.38 0.15 89 1009.7
20260506095511 8 188 0.0 3.2 0.10 0.38 0.15 89 1009.3
20260506095009 8 145 0.0 3.2 0.10 0.38 0.15 88 1009.3
20260506094533 8 236 0.0 1.6 0.10 0.38 0.15 88 1009.1
20260506094012 8 246 0.0 1.6 0.10 0.38 0.15 88 1009.6
20260506093513 8 246 0.0 1.6 0.10 0.38 0.15 87 1009.5
20260506093028 8 246 0.0 1.6 0.08 0.36 0.13 87 1009.4
20260506092507 8 246 0.0 1.6 0.08 0.36 0.13 86 1009.3
20260506092005 8 240 0.0 1.6 0.08 0.36 0.13 85 1009.8
20260506091513 8 240 0.0 1.6 0.05 0.33 0.10 84 1009.6
20260506091010 9 133 0.0 1.6 0.08 0.33 0.10 83 1009.8
20260506090511 9 132 0.0 4.8 0.05 0.30 0.08 83 1009.5
20260506090018 9 91 0.0 4.8 0.03 0.28 0.05 82 1009.3
20260506085511 9 95 1.6 3.2 0.03 0.28 0.05 82 1009.7
20260506085008 9 264 0.0 0.0 0.03 0.28 0.05 83 1009.5
20260506084524 9 264 0.0 1.6 0.03 0.28 0.05 84 1009.7
20260506084012 10 264 0.0 1.6 0.03 0.28 0.05 84 1009.5
20260506083512 10 264 0.0 1.6 0.03 0.28 0.05 84 1009.4
20260506083037 10 264 0.0 1.6 0.03 0.28 0.05 83 1009.4
20260506082510 10 278 0.0 0.0 0.03 0.28 0.05 83 1009.6
20260506082007 10 278 0.0 0.0 0.03 0.28 0.05 83 1009.5
20260506081527 10 278 0.0 0.0 0.03 0.28 0.05 82 1009.4
20260506081010 10 278 0.0 0.0 0.00 0.25 0.03 81 1009.6
20260506080508 10 278 0.0 0.0 0.00 0.25 0.03 81 1009.5
20260506073512 11 86 0.0 3.2 0.00 0.25 0.03 80 1009.2
20260506073022 11 316 0.0 8.0 0.00 0.25 0.03 80 1009.0
20260506072512 11 70 0.0 8.0 0.00 0.25 0.03 81 1009.2
20260506072011 11 88 0.0 3.2 0.00 0.25 0.03 81 1009.6
20260506071526 11 57 0.0 3.2 0.00 0.25 0.03 82 1009.5
20260506071008 11 85 0.0 3.2 0.00 0.25 0.03 83 1009.1
20260506070503 11 65 0.0 1.6 0.00 0.25 0.03 86 1009.5
20260506062508 11 354 0.0 1.6 0.00 0.25 0.03 85 1009.0
20260506062006 11 354 0.0 4.8 0.00 0.25 0.03 85 1009.0
20260506061504 11 59 0.0 4.8 0.00 0.25 0.03 84 1008.9
20260506061007 11 131 0.0 1.6 0.00 0.25 0.03 84 1009.0
20260506060507 11 103 0.0 1.6 0.00 0.25 0.03 82 1009.3
20260506051003 11 104 0.0 1.6 0.03 0.25 0.03 86 1009.4
20260506050504 11 104 0.0 1.6 0.03 0.25 0.03 86 1009.4
20260506045003 11 103 0.0 1.6 0.03 0.25 0.03 86 1009.3
20260506044511 11 90 0.0 3.2 0.03 0.25 0.03 85 1009.4
20260506044006 11 90 0.0 3.2 0.03 0.25 0.03 85 1009.3
20260506043511 12 87 0.0 1.6 0.03 0.25 0.03 85 1008.7
20260506043017 12 87 0.0 1.6 0.00 0.23 0.00 84 1009.0
20260506042510 12 88 0.0 1.6 0.00 0.23 0.00 83 1009.0
20260506042008 12 87 0.0 1.6 0.00 0.23 0.00 83 1008.6
20260506041524 12 87 0.0 3.2 0.00 0.23 0.00 83 1008.5
20260506041007 12 74 0.0 3.2 0.00 0.23 0.00 82 1008.3
20260506040502 12 150 0.0 3.2 0.00 0.23 0.00 82 1008.5
20260506040004 12 108 0.0 3.2 0.00 0.23 0.00 80 1008.7
20260506035504 12 44 0.0 3.2 0.00 0.23 0.23 79 1008.5
20260506035006 13 131 0.0 1.6 0.00 0.23 0.23 79 1008.5
20260506034507 13 131 0.0 0.0 0.00 0.23 0.23 78 1008.2
20260506034006 13 131 0.0 1.6 0.03 0.23 0.23 77 1008.2
20260506033507 13 131 0.0 1.6 0.03 0.23 0.23 75 1008.1
20260506033015 13 131 0.0 0.0 0.03 0.23 0.23 74 1008.0
20260506032507 13 131 0.0 0.0 0.03 0.23 0.23 74 1008.0
20260506032007 13 131 0.0 0.0 0.03 0.23 0.23 74 1008.0
20260506031518 13 131 0.0 1.6 0.03 0.23 0.23 74 1008.1
20260506031008 13 131 0.0 1.6 0.03 0.23 0.23 73 1008.0
20260506030507 13 131 0.0 1.6 0.03 0.23 0.23 74 1007.8
20260506030024 13 131 0.0 1.6 0.03 0.23 0.23 73 1007.7
20260506025511 13 131 0.0 1.6 0.03 0.23 0.23 72 1007.8
20260506025004 14 131 0.0 3.2 0.03 0.23 0.23 73 1007.8
20260506024520 14 145 0.0 3.2 0.03 0.23 0.23 68 1007.8
20260506024006 14 321 0.0 3.2 0.00 0.20 0.20 65 1007.7
20260506023504 14 118 0.0 3.2 0.00 0.20 0.20 66 1007.6
20260506023014 14 307 0.0 1.6 0.00 0.20 0.20 67 1007.6
20260506022507 14 307 0.0 3.2 0.00 0.20 0.20 67 1007.5
20260506022007 14 306 0.0 3.2 0.00 0.20 0.20 67 1007.4
20260506021533 14 344 0.0 3.2 0.00 0.20 0.20 66 1007.6
20260506021010 15 340 0.0 3.2 0.00 0.20 0.20 67 1007.6
20260506020508 15 179 0.0 1.6 0.00 0.20 0.20 68 1007.5
20260506020022 15 252 0.0 1.6 0.00 0.20 0.20 68 1007.5
20260506015508 15 285 0.0 1.6 0.00 0.20 0.20 70 1007.5
20260506015008 15 288 0.0 1.6 0.00 0.20 0.20 71 1007.7
20260506014527 16 288 0.0 1.6 0.00 0.20 0.20 72 1007.8
20260506014008 16 288 0.0 1.6 0.00 0.20 0.20 72 1007.7
20260506013505 16 287 0.0 1.6 0.00 0.20 0.20 78 1007.6
20260506013010 16 232 0.0 1.6 0.00 0.20 0.20 79 1007.3
20260506012503 16 231 0.0 1.6 0.00 0.20 0.20 78 1006.9
20260506012003 17 227 0.0 1.6 0.00 0.20 0.20 77 1006.6
20260506011521 17 227 0.0 1.6 0.00 0.20 0.20 77 1006.3
20260506011007 17 227 0.0 3.2 0.00 0.20 0.20 76 1006.1
20260506010507 17 147 0.0 3.2 0.00 0.20 0.20 76 1006.0
20260506010019 17 130 0.0 3.2 0.00 0.20 0.20 75 1005.9
20260506005508 17 148 0.0 1.6 0.00 0.20 0.20 75 1005.7
20260506005013 17 152 0.0 4.8 0.00 0.20 0.20 75 1005.7
20260506004524 17 125 0.0 4.8 0.00 0.20 0.20 74 1005.6
20260506004010 17 153 1.6 3.2 0.00 0.20 0.20 74 1005.7
20260506003509 17 124 0.0 3.2 0.00 0.20 0.20 74 1005.6
20260506003025 17 125 0.0 3.2 0.00 0.20 0.20 73 1005.5
20260506002513 17 113 0.0 1.6 0.00 0.20 0.20 73 1005.4
20260506002006 17 113 0.0 1.6 0.00 0.20 0.20 73 1005.3
20260506001514 17 113 0.0 3.2 0.00 0.20 0.20 73 1005.1
20260506001006 17 103 0.0 4.8 0.00 0.20 0.20 73 1005.0
20260506000504 17 146 0.0 4.8 0.00 0.20 0.20 73 1004.8
20260506000016 17 204 0.0 0.0 0.00 0.20 0.20 73 1004.9
20260505235508 17 316 0.0 1.6 0.00 0.20 0.20 73 1005.0
20260505235010 17 316 0.0 4.8 0.00 0.20 0.20 71 1004.8
20260505234522 17 205 0.0 4.8 0.00 0.20 0.20 70 1004.9
20260505234008 17 150 0.0 3.2 0.00 0.20 0.20 71 1004.8
20260505233512 17 179 1.6 3.2 0.00 0.20 0.20 71 1004.7
20260505233023 17 136 0.0 1.6 0.00 0.20 0.20 75 1004.7
20260505232511 17 134 0.0 1.6 0.00 0.20 0.20 77 1004.8
20260505232009 17 300 0.0 1.6 0.00 0.20 0.20 77 1004.9
20260505231530 17 58 0.0 1.6 0.00 0.20 0.20 77 1005.1
20260505231008 17 129 0.0 3.2 0.00 0.20 0.20 77 1004.9
20260505230505 17 129 0.0 3.2 0.00 0.20 0.20 77 1004.8
20260505230011 17 135 0.0 3.2 0.00 0.20 0.20 76 1004.6
20260505225507 17 123 0.0 3.2 0.00 0.20 0.20 75 1004.5
20260505225008 17 149 0.0 3.2 0.00 0.20 0.20 74 1004.5
20260505224526 18 133 0.0 1.6 0.00 0.20 0.20 73 1004.4
20260505224009 18 147 0.0 3.2 0.00 0.20 0.20 72 1004.3
20260505223507 18 141 0.0 3.2 0.00 0.20 0.20 71 1004.4
20260505223021 18 174 1.6 3.2 0.00 0.20 0.20 71 1004.4
20260505222510 18 139 1.6 3.2 0.00 0.20 0.20 71 1004.5